Showing default

SOLRAD 7B, 1291

Orbit data source: Space-Track

SOLRAD 7B, 1291 is an American payload satellite in LEO that was launched on Tue, 09 Mar 1965 UTC via a THOR SLV-2 AGENA D launch vehicle from the Air Force Western Test Range (AFWTR). Payload-class satellites include a variety of spacecraft equipped with specific instruments for various scientific and technological missions. These include communications satellites like Starlink; space stations such as the ISS; scientific satellites like the Hubble; Earth observation satellites from companies like Planet Labs, Umbra, and HawkEye 360; GPS; miniature CubeSats for education and research; and military/defense satellites.

Loading next visibility...
Identifier
1291, 1965-016D
Orbit
LEO
Last TLE update
12 hours ago
Origin
Manufacturer
NRL
Mission
Defense Science
Bus & Motor
NRL 24", Unknown motor
Mass
47 kg wet, 47 kg dry
Launch date (UTC)
1965-03-09 (60 years ago)
Launch vehicle
THOR SLV-2 AGENA D
Launch site
Air Force Western Test Range (AFWTR)
Object type
Payload
Rocket body
Debris
Shape & HBR
Sphere + 1 Ant, 0.8 m
Radar Cross Section
0.248 m², Medium (>0.1 m² and < 1m²)

Expand to show TLE details & history

TLE from 12 hours ago
0 SOLRAD 7B
1 01291U 65016D   25199.46345718 -.00000015  00000-0  27655-4 0  9991
2 01291  70.0768 225.7376 0022007 205.8903 154.1104 13.94917930 70169
Epoch: 2025-07-18T11:07Z
TLE epoch observation values (Epoch: 2025-07-18T11:07:22.7Z)
Latitude
0.00004°
Longitude
122.37848°
Altitude
928.204 km
Speed
7.381 km/s
True Right ascension
15h 02m 57s
True Declination
0° 00' 00"
Sunlit
Object was in daylight at epoch
Visualization orbit readout
Latitude
-26.61385°
Longitude
110.91531°
Altitude
930.297 km
Speed
7.381 km/s
Apparent Right ascension
17h 30m 17s
Apparent Declination
-61° 44' 55"
Sunlit
Object is in daylight
Visualization observer readout
Local Sidereal Time
11:49:34
Azimuth
146.071° SSE
Elevation
-32.324°
Doppler factor
1
Orbital elements
Apogee altitude
925.521 km
Perigee altitude
893.445 km
Semi-major axis
7,287.62 km
Eccentricity
0.0022
Inclination
70.0768°
RAAN
225.7376°
Arg. of periapsis
205.8903°
True anomaly
154.22024°
Mean anomaly
154.1104°
Eccentric anomaly
154.16535°
Mean motion
3.48871 °/min
Orbital period
103.19 mins
BSTAR
0.000027655
Loading maneuver chart data...
Loading SW <> Apogee altitude chart data...
Loading historical data...
Loading historical data...
Loading historical data...
Loading historical data...
Loading historical data...
Loading historical data...
Loading historical data...
|